Decatur, IL

9:51 PM CST on December 12, 2017 (GMT -0600)
Decatur

Weather History for KDEC - June, 2013

Change the Weather History Date:

Friday, June 21, 2013

  Actual Average Record
Temperature  
Mean Temperature 81 °F 74 °F  
Max Temperature 90 °F 84 °F 93 °F (2006)
Min Temperature 71 °F 64 °F 48 °F (2003)
Degree Days  
Heating Degree Days 0 0  
Month to date heating degree days 14 14  
Since 1 June heating degree days 14 14  
Since 1 July heating degree days 5419 5518  
Cooling Degree Days 16 9  
Month to date cooling degree days 140 139  
Year to date cooling degree days 252 226  
Since 1 June cooling degree days 140 139  
Growing Degree Days 30 (Base 50)    
Moisture  
Dew Point 66 °F    
Average Humidity 62    
Maximum Humidity 79    
Minimum Humidity 44    
Precipitation  
Precipitation 0.07 in 0.13 in 1.13 in (2001)
Month to date precipitation 3.13 3.20  
Year to date precipitation 21.44 17.65  
Sea Level Pressure  
Sea Level Pressure 30.08 in    
Wind  
Wind Speed 10 mph (South)    
Max Wind Speed 9 mph    
Max Gust Speed 13 mph    
Visibility 10 miles    
Events Rain , Thunderstorm    
T = Trace of Precipitation, MM = Missing Value Source: NWS Daily Summary

Daily Weather History Graph

Daily Weather History Graph

Search for Another Location

Airport or City:

Trip Planner

Search our weather history database for the weather conditions in past years. The results will help you decide how hot, cold, wet, or windy it might be!

Date:

Astronomy

Jun. 21, 2013 Rise Set
Actual Time 5:27 AM CDT 8:27 PM CDT
Civil Twilight 4:54 AM CDT 9:00 PM CDT
Nautical Twilight 4:13 AM CDT 9:41 PM CDT
Astronomical Twilight 3:24 AM CDT 10:29 PM CDT
Moon 6:37 PM CDT (6/21) 3:42 AM CDT (6/21)
Length of Visible Light 16h 05m
Length of Day
14h 59m
Waxing Gibbous, 95% of the Moon is Illuminated
Jun 21
Waxing Gibbous
Jun 23
Full
Jun 29
Last Quarter
Jul 8
New
Jul 15
First Quarter

Hourly Weather History & Observations

Time (CDT) Temp. Heat Index Dew Point Humidity Pressure Visibility Wind Dir Wind Speed Gust Speed Precip Events Conditions
12:54 AM 73.0 °F - 64.0 °F 73% 30.11 in 10.0 mi SSE 6.9 mph - N/A   Clear
1:54 AM 73.0 °F - 64.0 °F 73% 30.10 in 10.0 mi SSE 6.9 mph - N/A   Clear
2:54 AM 72.0 °F - 64.0 °F 76% 30.10 in 10.0 mi SSE 6.9 mph - N/A   Clear
3:54 AM 72.0 °F - 64.0 °F 76% 30.10 in 10.0 mi South 6.9 mph - N/A   Clear
4:54 AM 71.1 °F - 64.0 °F 78% 30.10 in 10.0 mi South 8.1 mph - N/A   Scattered Clouds
5:54 AM 71.1 °F - 64.0 °F 78% 30.11 in 10.0 mi SSE 6.9 mph - N/A   Clear
6:54 AM 73.0 °F - 64.9 °F 76% 30.11 in 10.0 mi SSE 9.2 mph - N/A   Clear
7:54 AM 77.0 °F - 66.0 °F 69% 30.11 in 10.0 mi South 12.7 mph - N/A   Clear
8:54 AM 80.1 °F 82.3 °F 66.9 °F 64% 30.11 in 10.0 mi South 10.4 mph - N/A   Clear
9:54 AM 82.9 °F 85.8 °F 68.0 °F 60% 30.11 in 10.0 mi SSW 12.7 mph - N/A   Clear
10:54 AM 86.0 °F 88.8 °F 66.9 °F 53% 30.11 in 10.0 mi South 17.3 mph 20.7 mph N/A   Clear
11:54 AM 88.0 °F 90.3 °F 66.0 °F 48% 30.09 in 10.0 mi SSW 15.0 mph 23.0 mph N/A   Partly Cloudy
12:54 PM 89.1 °F 91.0 °F 64.9 °F 45% 30.09 in 10.0 mi SSW 11.5 mph - N/A   Partly Cloudy
1:54 PM 89.1 °F 91.0 °F 64.9 °F 45% 30.08 in 10.0 mi SSW 15.0 mph 20.7 mph N/A   Scattered Clouds
2:54 PM 90.0 °F 92.4 °F 66.0 °F 45% 30.06 in 10.0 mi SSW 13.8 mph - N/A   Partly Cloudy
3:54 PM 88.0 °F 90.3 °F 66.0 °F 48% 30.08 in 10.0 mi South 9.2 mph - N/A   Scattered Clouds
4:22 PM 84.2 °F 85.6 °F 64.4 °F 51% 30.12 in 10.0 mi North 23.0 mph 38.0 mph N/A Thunderstorm Overcast
4:41 PM 75.2 °F - 66.2 °F 73% 30.14 in 10.0 mi North 20.7 mph 31.1 mph N/A Thunderstorm Overcast
4:54 PM 75.9 °F - 66.9 °F 74% 30.13 in 10.0 mi NNE 13.8 mph 21.9 mph N/A Thunderstorm Mostly Cloudy
5:25 PM 75.2 °F - 69.8 °F 83% 30.06 in 7.0 mi SE 15.0 mph - 0.07 in Rain , Thunderstorm Light Thunderstorms and Rain
5:46 PM 75.2 °F - 69.8 °F 83% 30.05 in 10.0 mi ESE 12.7 mph - 0.07 in   Mostly Cloudy
5:54 PM 75.9 °F - 68.0 °F 76% 30.03 in 10.0 mi East 9.2 mph - 0.07 in   Scattered Clouds
6:54 PM 78.1 °F - 69.1 °F 74% 30.01 in 10.0 mi SSE 12.7 mph - N/A   Scattered Clouds
7:54 PM 80.1 °F 82.7 °F 68.0 °F 67% 29.99 in 10.0 mi South 12.7 mph - N/A   Clear
8:54 PM 78.1 °F - 68.0 °F 71% 30.02 in 10.0 mi SE 8.1 mph - N/A   Clear
9:54 PM 80.1 °F 82.7 °F 68.0 °F 67% 30.05 in 10.0 mi South 8.1 mph - N/A   Clear
10:54 PM 77.0 °F - 68.0 °F 74% 30.06 in 10.0 mi South 5.8 mph - N/A   Clear
11:54 PM 77.0 °F - 69.1 °F 76% 30.06 in 10.0 mi SSW 6.9 mph - N/A   Clear